Retour au catalogue

ELECTRON KICK STAGE R/B

ActifVLEO
NORAD 53354·ROCKET BODY·🇺🇸 United States

Lancé Aug 4, 2022 depuis Rocket Lab Launch Complex 1

Loading…

Prochains Passages (prochaines 24 heures)

TLE

VieillissantSource: Space-Track

Époque: Sep 13, 2026, 10:24 UTC

1 53354U 22091C   26256.43339867  .00002320  00000-0  23028-3 0  9993
2 53354  70.0005 263.8681 0005879 309.4974  50.5662 14.93163888127558

Suivez ELECTRON KICK STAGE R/B en temps réel avec AllMySat

Download on the App Store